Vertical_Velocity
-2 2 -8 -3 7 3 3 2 3 -1 3 -1 3 3 4 6 1 2 2 -0 -1 1 -1 -2 0 -1 -5
-14 -2 -12 24 9 -2 -2 -1 6 -3 3 -3 6 5 8 -6 31 2 7 -3 -0 -1 1 3 -1 -4 -2
-14 -9 12 11 28 7 -0 -1 2 -2 1 1 -0 5 6 -3 38 3 -13 2 3 -2 -2 -4 -2 -3 -5
-10 -9 -2 25 13 3 9 -3 5 -6 5 -1 1 -0 11 1 6 3 7 2 -1 2 1 2 -0 -2 1
-7 -2 0 -4 9 42 5 -2 -7 -7 -3 -2 -1 5 -9 -3 12 4 1 -3 -0 -1 -1 -2 -4 1 3
0 -2 -9 -7 0 0 57 9 8 0 9 -0 2 -1 -6 -19 -1 -4 0 -3 1 -3 3 -1 -3 2 4
-1 5 -12 4 2 -6 14 46 -5 -9 6 -3 -2 -4 -15 0 -2 0 1 1 1 2 3 -1 -0 0 -1
-1 -2 -9 6 -5 3 10 -4 1 36 3 -0 -7 -6 -2 -4 -0 1 -2 3 1 0 -5 -1 1 5 0
-4 -4 -4 3 9 -7 -9 0 -9 22 15 3 -13 8 -1 -6 -2 0 -0 -1 2 3 2 1 5 2 3
2 1 1 -5 6 -12 3 -6 4 -9 8 7 3 -3 5 -6 -7 -1 3 2 1 2 2 3 5 -0 -1
2 -2 0 -5 -5 -3 -2 -8 -3 -9 14 54 -8 -1 7 -5 -5 -1 -2 -2 2 0 2 2 1 -2 -3
5 -4 -3 -2 1 1 -1 4 -6 -16 6 23 36 -11 -6 0 0 -3 3 -1 2 -2 -1 2 4 3 1
-5 -5 -3 -1 0 -1 3 3 3 -4 0 3 4 26 6 -9 -13 -12 6 -5 2 -2 2 0 -7 -7 -4
-3 -0 0 -0 -5 -1 2 5 1 -6 4 -3 -6 30 14 7 -6 5 -3 -10 -4 -2 5 1 1 1 -3
-2 -3 -1 1 -3 3 -3 -1 -4 0 -14 -3 -11 3 21 9 11 -5 -8 -3 4 0 6 1 3 -0 3
-3 1 -1 1 1 -2 1 -1 -5 4 -4 -10 -0 11 16 8 3 8 9 3 -0 2 7 5 8 1 4
-1 -3 -2 0 6 -0 2 0 -3 -0 1 -8 0 7 10 -5 -2 17 -0 -3 -0 7 3 5 -2 -3 -1
Height
1388 1388 1392 1400 1404 1411 1421 1427 1434 1441 1449 1456 1463 1471 1479 1484 1489 1494 1501 1505 1508 1511 1517 1522 1526 1530 1534
1382 1385 1385 1390 1395 1401 1408 1416 1422 1430 1438 1446 1454 1462 1470 1475 1473 1481 1491 1500 1502 1506 1511 1516 1521 1525 1530
1379 1388 1379 1380 1386 1391 1397 1405 1414 1419 1429 1436 1445 1453 1460 1466 1468 1477 1484 1492 1496 1500 1506 1511 1516 1521 1524
1379 1376 1377 1375 1375 1380 1388 1394 1402 1409 1418 1426 1434 1442 1450 1457 1463 1468 1476 1481 1487 1494 1499 1503 1509 1514 1518
1374 1371 1368 1369 1371 1377 1380 1385 1392 1401 1409 1415 1422 1429 1439 1446 1452 1458 1465 1472 1479 1485 1492 1498 1502 1507 1511
1368 1367 1360 1366 1368 1369 1372 1376 1380 1386 1397 1403 1412 1417 1426 1431 1442 1449 1455 1462 1470 1476 1483 1489 1495 1500 1503
1360 1357 1358 1366 1362 1361 1364 1366 1372 1375 1386 1394 1402 1410 1418 1425 1432 1439 1446 1453 1460 1467 1474 1480 1487 1491 1496
1350 1350 1353 1355 1357 1358 1358 1359 1362 1365 1373 1382 1389 1397 1407 1415 1422 1430 1438 1445 1452 1458 1465 1472 1479 1483 1487
1344 1345 1346 1345 1349 1350 1355 1360 1359 1361 1361 1371 1380 1390 1397 1404 1412 1422 1430 1437 1443 1449 1456 1464 1470 1474 1479
1337 1338 1336 1339 1338 1343 1349 1353 1356 1357 1356 1365 1372 1379 1386 1391 1401 1413 1420 1427 1435 1441 1448 1455 1461 1465 1468
1328 1329 1329 1329 1332 1336 1341 1346 1350 1351 1354 1356 1358 1368 1376 1382 1389 1399 1407 1416 1423 1431 1439 1446 1450 1455 1459
1320 1320 1322 1324 1326 1327 1333 1336 1340 1345 1351 1350 1350 1356 1364 1369 1378 1385 1395 1403 1413 1419 1426 1433 1439 1445 1450
1312 1313 1315 1317 1318 1320 1324 1328 1331 1335 1338 1342 1344 1347 1352 1357 1367 1373 1383 1389 1398 1406 1414 1419 1425 1431 1438
1303 1304 1307 1308 1310 1314 1317 1318 1321 1324 1325 1330 1337 1343 1342 1348 1357 1363 1369 1374 1384 1392 1402 1408 1414 1421 1428
1294 1294 1296 1298 1298 1302 1304 1310 1311 1311 1313 1321 1329 1335 1338 1343 1348 1353 1360 1366 1374 1380 1388 1394 1402 1409 1416
1285 1285 1285 1287 1288 1292 1296 1299 1299 1301 1304 1312 1320 1327 1328 1332 1339 1341 1348 1355 1363 1370 1376 1383 1389 1398 1406
1273 1274 1274 1275 1277 1280 1281 1285 1286 1289 1294 1302 1310 1318 1318 1321 1330 1335 1339 1345 1353 1360 1366 1373 1380 1390 1398